www.pogodaiklimat.ru

Погода и климат >> Архив погоды >> Бельгия >> Дипенбек


ПОГОДА в Дипенбеке

  • Прогноз погоды в Дипенбеке
  • Монитор погоды в Дипенбеке

АРХИВ ПОГОДЫ в Дипенбеке

Время (UTC), дата Ветер
(напр.,м/с)
 
Видим.   Явления Облачность Т
(С)
Тd
(С)
f
(%)
Тe
(С)
Тes
(С)
Комфортность P
(гПа)
Po
(гПа)
Тmin
(С)
Tmax
(С)
R
(мм)
R24
(мм)
S
(см)
13 14.07 СЗ 3 н/о 10/10 <50 м
[]
+18.4 +12.3 68 +19 +19 1020.5 1016.1 71
14 14.07 н/о 10/10 <50 м
[]
+18.6 +12.4 67 1020.5 1016.1 93
15 14.07 С 3
{7}
н/о 10/10 <50 м
[]
+18.3 +12.7 70 +19 +19 1020.3 1015.9 92
16 14.07 С 4 н/о 10/10 <50 м
[]
+18.4 +12.2 67 +19 +19 1020.2 1015.8 75
17 14.07 С 4 н/о 10/10 <50 м
[]
+18.1 +12.3 69 +18 +18 1020.2 1015.8 47
18 14.07 С 2 н/о н/о +17.9 +12.7 72 +18 +18 1020.2 1015.8 +19.0 22
19 14.07 С 3 н/о н/о +17.7 +12.4 71 +18 +18 1020.2 1015.8 12
20 14.07 С 2 н/о 10/10 <50 м
[]
+17.0 +12.5 75 +17 +17 1020.4 1016.0 2
21 14.07 СЗ 1
{7}
н/о 1/1 <50 м
[]
+15.3 +12.4 83 +16 +16 1020.7 1016.2
22 14.07 С 2 н/о 9/9 <50 м
[]
+14.9 +12.2 84 +15 +15 1020.9 1016.4
23 14.07 С 4 н/о 10/10 <50 м
[]
+15.4 +10.7 74 +14 +14 1021.0 1016.5
00 15.07 С 2
{7}
н/о 1/1 <50 м
[]
+13.7 +10.6 82 +13 +13 1021.0 1016.5 93
01 15.07 СЗ 2 н/о 1/1 <50 м
[]
+12.3 +10.4 88 +11 +11 1021.2 1016.7
02 15.07 СЗ 1 н/о ясно +9.4 +8.7 95 +9 +9 1020.9 1016.3
03 15.07 СЗ 1
{3}
н/о ясно +7.8 +7.6 99 +7 +7 1020.7 1016.1
04 15.07 З 1 н/о 10/10 <50 м
[]
+9.6 +9.6 100 +9 +9 1020.7 1016.1
05 15.07 СЗ 1 н/о 10/10 <50 м
[]
+11.3 +11.2 99 +11 +11 1020.9 1016.4 3
06 15.07 ЮЗ 1
{3}
н/о 10/10 <50 м
[]
+12.7 +11.8 94 +13 +13 1021.1 1016.6 +7.7 19
07 15.07 С 1 н/о 10/10 <50 м
[]
+14.0 +11.5 85 +14 +14 1021.1 1016.6 32
08 15.07 С 2 н/о 10/10 <50 м
[]
+14.9 +11.6 81 +15 +15 1021.2 1016.7 46
09 15.07 СЗ 1
{3}
н/о 10/10 <50 м
[]
+15.7 +10.9 73 +16 +16 1021.0 1016.5 61
10 15.07 СЗ 2 н/о н/о +15.8 +11.2 74 +16 +16 1020.9 1016.4 44
11 15.07 СЗ 3 н/о 10/10 <50 м
[]
+15.9 +11.2 74 +15 +15 1021.1 1016.6 44
12 15.07 С 2
{6}
н/о 10/10 <50 м
[]
+16.5 +11.8 74 +17 +17 1021.0 1016.6 65
13 15.07 С 3 н/о 10/10 <50 м
[]
+16.5 +11.6 73 +16 +16 1020.9 1016.5 71
14 15.07 С 3 н/о 10/10 <50 м
[]
+17.2 +11.2 68 +17 +17 1020.9 1016.5 67
15 15.07 С 2
{6}
н/о 10/10 <50 м
[]
+17.2 +10.8 66 +18 +18 1020.9 1016.5 49
16 15.07 С 2 н/о 9/9 <50 м
[]
+18.1 +10.0 59 +19 +19 1020.6 1016.2 105
17 15.07 С 3 н/о 10/10 <50 м
[]
+17.9 +10.1 60 +18 +18 1020.2 1015.8 51
18 15.07 С 2
{7}
н/о 10/10 <50 м
[]
+17.6 +10.7 64 +18 +18 1020.2 1015.8 +18.1 30
19 15.07 С 2 н/о 10/10 <50 м
[]
+17.3 +10.7 65 +18 +18 1020.1 1015.7 15
20 15.07 СЗ 2 н/о 10/10 <50 м
[]
+16.8 +11.0 69 +17 +17 1020.4 1016.0 2
21 15.07 С 2
{5}
н/о 10/10 <50 м
[]
+16.1 +11.7 75 +16 +16 1020.4 1015.9
22 15.07 СЗ 1 н/о 10/10 <50 м
[]
+15.2 +12.1 82 +16 +16 1020.5 1016.0
23 15.07 СЗ 1 н/о 3/3 <50 м
[]
+13.2 +11.7 91 +13 +13 1020.8 1016.3
00 16.07 СЗ 1
{5}
н/о ясно +9.9 +9.5 97 +9 +9 1021.0 1016.4 71
01 16.07 ЮЗ 1 н/о ясно +9.3 +9.3 100 +8 +8 1021.0 1016.4
02 16.07 штиль 0 н/о ясно +7.1 +7.1 100 +6 +6 1020.7 1016.1
03 16.07 штиль 0
{2}
н/о 5/5 <50 м
[]
+6.8 +6.8 100 +6 +6 1020.4 1015.8
04 16.07 Ю 1 н/о 10/10 <50 м
[]
+8.5 +8.5 100 +8 +8 1020.3 1015.7
05 16.07 Ю 1 н/о 10/10 <50 м
[]
+10.3 +10.3 100 +10 +10 1020.6 1016.1 4
06 16.07 ЮЗ 1
{2}
н/о 10/10 <50 м
[]
+11.6 +11.6 100 +11 +11 1020.7 1016.2 +6.6 11
07 16.07 ЮЗ 1 н/о 10/10 <50 м
[]
+12.5 +12.3 99 +12 +12 1020.8 1016.3 20
08 16.07 ЮЗ 1 н/о 10/10 <50 м
[]
+13.6 +12.6 94 +14 +14 1020.9 1016.4 32
09 16.07 З 1
{2}
н/о 10/10 <50 м
[]
+14.8 +11.9 83 +15 +15 1020.9 1016.4 47
10 16.07 З 2 н/о 10/10 <50 м
[]
+15.4 +11.5 78 +15 +15 1020.6 1016.1 53
11 16.07 СЗ 1 н/о 10/10 <50 м
[]
+16.2 +10.9 71 +17 +17 1020.3 1015.9 75
12 16.07 З 1
{4}
н/о 10/10 <50 м
[]
+16.7 +11.1 70 +18 +18 1020.1 1015.7 63
13 16.07 З 1 н/о 10/10 <50 м
[]
+17.6 +11.1 66 +19 +19 1019.8 1015.4 98
14 16.07 СЗ 2 н/о 10/10 <50 м
[]
+18.1 +11.2 64 +19 +19 1019.6 1015.2 92
15 16.07 З 1
{4}
н/о 10/10 <50 м
[]
+18.5 +11.2 62 +20 +20 1019.4 1015.0 109
16 16.07 ЮЗ 2 н/о 5/5 <50 м
[]
+19.6 +11.5 59 +21 +24 комфорт 1018.9 1014.5 140
17 16.07 З 1 н/о 8/8 <50 м
[]
+19.7 +11.4 59 +22 +23 комфорт 1018.4 1014.0 103
18 16.07 ЮЗ 2
{5}
н/о 8/8 <50 м
[]
+19.6 +11.6 60 +22 +22 комфорт 1018.1 1013.7 +19.9 76
19 16.07 Ю 2 н/о 3/3 <50 м
[]
+17.9 +12.1 69 +18 +19 1018.1 1013.7 35
20 16.07 Ю 1 н/о ясно +14.6 +12.2 86 +15 +15 1018.1 1013.6 4
21 16.07 штиль 0
{3}
н/о 1/1 <50 м
[]
+12.1 +10.8 92 +11 +11 1018.2 1013.7
22 16.07 штиль 0 н/о ясно +10.4 +10.4 100 +10 +10 1018.2 1013.7
23 16.07 штиль 0 н/о 10/10 <50 м
[]
+9.4 +9.3 99 +8 +8 1018.2 1013.7
00 17.07 ЮВ 1
{3}
н/о 3/3 <50 м
[]
+8.3 +8.3 100 +7 +7 1018.0 1013.4 97
01 17.07 штиль 0 н/о 9/9 <50 м
[]
+7.4 +7.4 100 +6 +6 1017.9 1013.3
02 17.07 штиль 0 н/о 1/1 <50 м
[]
+6.7 +6.7 100 +6 +6 1017.7 1013.1
03 17.07 ЮВ 1
{1}
н/о ясно +6.4 +6.4 100 +5 +5 1017.2 1012.6
04 17.07 штиль 0 н/о ясно +5.8 +5.8 100 +5 +5 1017.4 1012.8
05 17.07 штиль 0 н/о 9/9 <50 м
[]
+8.0 +8.0 100 +7 +7 1017.1 1012.5 8
06 17.07 ЮЗ 1
{1}
н/о 9/9 <50 м
[]
+10.9 +10.9 100 +10 +11 1017.0 1012.5 +5.7 34
07 17.07 В 1 н/о 5/5 <50 м
[]
+14.2 +12.3 88 +15 +18 1017.3 1012.8 89
08 17.07 СВ 1 н/о ясно +17.8 +13.0 73 +19 +29 1016.8 1012.4 126
09 17.07 В 3
{4}
н/о 1/1 <50 м
[]
+19.5 +12.4 64 +21 +30 комфорт 1016.7 1012.3 168
10 17.07 СВ 2 н/о 8/8 <50 м
[]
+20.6 +12.6 60 +23 +26 комфорт 1016.6 1012.2 204
11 17.07 В 2 н/о 4/4 <50 м
[]
+21.2 +12.2 56 +23 +33 комфорт 1016.3 1011.9 234
12 17.07 В 2
{8}
н/о 3/3 <50 м
[]
+22.6 +12.1 51 +25 +37 комфорт 1015.8 1011.5 247
13 17.07 В 2 н/о 1/1 <50 м
[]
+23.7 +12.2 48 +25 +39 комфорт 1015.3 1011.0 255
14 17.07 В 2 н/о 3/3 <50 м
[]
+24.2 +12.0 46 +26 +35 жарко 1015.0 1010.7 232
15 17.07 СВ 3
{6}
н/о 1/1 <50 м
[]
+24.1 +12.0 47 +26 +33 жарко 1014.7 1010.4 194
16 17.07 СВ 2
{5}
н/о 6/6 <50 м
[]
+23.9 +11.5 46 +25 +28 комфорт 1014.1 1009.8 130
17 17.07 СВ 2
{5}
н/о 9/9 <50 м
[]
+23.3 +11.5 47 +26 +26 жарко 1013.9 1009.6 83
18 17.07 ЮВ 2
{6}
н/о 1/1 <50 м
[]
+21.8 +12.0 54 +24 +25 комфорт 1013.6 1009.3 +24.6 44
19 17.07 В 1
{2}
н/о н/о +21.0 +14.6 67 +25 +25 комфорт 1013.6 1009.3 16
20 17.07 Ю 1
{1}
н/о н/о +17.6 +14.3 81 +19 +19 1013.7 1009.3 1
21 17.07 штиль 0
{2}
н/о 9/9 <50 м
[]
+15.5 +13.0 85 +15 +15 1013.6 1009.2
22 17.07 В 1 н/о 10/10 <50 м
[]
+14.6 +12.9 90 +15 +15 1013.3 1008.9
23 17.07 В 1
{1}
н/о 9/9 <50 м
[]
+13.4 +12.1 92 +14 +14 1013.3 1008.8
00 18.07 В 1
{2}
н/о 9/9 <50 м
[]
+13.3 +12.3 94 +13 +13 1013.4 1008.9 207
01 18.07 В 1 н/о 10/10 <50 м
[]
+12.9 +12.1 95 +13 +13 1013.2 1008.7
02 18.07 В 1 н/о 10/10 <50 м
[]
+12.2 +11.5 95 +12 +12 1012.7 1008.2
03 18.07 В 1
{2}
н/о 9/9 <50 м
[]
+11.7 +11.1 96 +11 +11 1012.3 1007.8
04 18.07 В 1
{2}
н/о 9/9 <50 м
[]
+11.4 +10.8 96 +11 +11 1012.3 1007.8
05 18.07 ЮВ 1 н/о 9/9 <50 м
[]
+12.3 +11.8 97 +12 +12 1012.2 1007.7 4
06 18.07 Ю 1
{4}
н/о 10/10 <50 м
[]
+16.8 +13.6 81 +18 +18 1012.3 1007.9 +11.0 40
07 18.07 ЮЗ 4 н/о 9/9 <50 м
[]
+18.5 +13.2 71 +19 +19 1012.4 1008.0 86
08 18.07 ЮЗ 3 н/о 6/6
[]
+19.4 +12.8 66 +21 +24 комфорт 1012.3 1007.9 94
09 18.07 З 3
{5}
н/о 3/3 <50 м
[]
+21.1 +10.4 50 +23 +30 комфорт 1012.2 1007.9 164
10 18.07 ЮЗ 4 н/о 4/4 <50 м
[]
+22.9 +9.8 43 +25 +30 комфорт 1012.1 1007.8 210
11 18.07 ЮЗ 5
{9}
н/о 8/8 <50 м
[]
+23.0 +12.3 51 +26 +27 жарко 1012.2 1007.9
12 18.07 З 5
{10}
н/о 6/6 <50 м
[]
+23.5 +13.3 53 +26 +29 жарко 1012.1 1007.8 153
13 18.07 З 4 н/о 8/8 <50 м
[]
+23.3 +13.4 54 +27 +29 душно 1012.0 1007.7 119
14 18.07 З 3 н/о 8/8 <50 м
[]
+23.4 +12.9 52 +26 +29 жарко 1012.0 1007.7 125
15 18.07 З 4
{8}
н/о 9/9 <50 м
[]
+23.1 +11.2 47 +25 +26 комфорт 1012.0 1007.7 93
16 18.07 З 4 н/о 8/8
[]
+23.4 +12.8 51 +26 +27 жарко 1011.9 1007.6 102
17 18.07 З 2 н/о 9/9 <50 м
[]
+23.0 +13.5 55 +26 +27 жарко 1012.0 1007.7 62
18 18.07 ЮЗ 3
{9}
н/о 10/10 <50 м
[]
+22.7 +14.2 59 +26 +26 жарко 1011.8 1007.5 +23.7 24
19 18.07 З 3 н/о 10/10 <50 м
[]
+21.0 +14.6 67 +24 +24 комфорт 1012.6 1008.3 8
20 18.07 З 3 н/о 10/10 <50 м
[]
+20.0 +14.7 72 +23 +23 комфорт 1013.2 1008.8 1
21 18.07 ЮЗ 2
{10}
н/о 10/10 <50 м
[]
+19.1 +15.1 78 +21 +21 комфорт 1013.2 1008.8
22 18.07 ЮЗ 2 н/о 9/9
[]
+18.0 +15.2 84 +19 +19 1013.3 1008.9
23 18.07 Ю 1 н/о 10/10 <50 м
[]
+17.1 +15.0 87 +18 +18 1013.5 1009.1
00 19.07 ЮЗ 1
{10}
н/о 10/10 <50 м
[]
+16.9 +15.4 91 +18 +18 1013.5 1009.1 144
01 19.07 Ю 1 н/о 10/10 <50 м
[]
+17.0 +15.4 90 +18 +18 1013.6 1009.2
02 19.07 ЮЗ 2 н/о 10/10 <50 м
[]
+17.4 +15.7 90 +18 +18 1013.8 1009.4
03 19.07 ЮЗ 2
{3}
н/о 9/9 600 м
[]
+17.4 +15.7 90 +18 +18 1013.7 1009.3
04 19.07 З 3 н/о 9/9 <50 м
[]
+17.4 +15.0 86 +17 +17 1013.8 1009.4
05 19.07 ЮЗ 3 н/о 10/10 <50 м
[]
+16.8 +14.0 84 +17 +17 1014.2 1009.8 6
06 19.07 ЮЗ 3
{5}
н/о 10/10 <50 м
[]
+16.8 +13.6 81 +17 +17 1014.4 1010.0 +16.6 16
07 19.07 З 3 н/о 10/10 <50 м
[]
+17.4 +13.5 78 +17 +17 1015.0 1010.6 44
08 19.07 З 3 н/о 10/10 <50 м
[]
+18.6 +13.9 74 +19 +19 1014.9 1010.5 84
09 19.07 З 3
{6}
н/о 8/8 <50 м
[]
+20.2 +14.5 70 +23 +25 комфорт 1015.2 1010.8 123
10 19.07 ЮЗ 5 н/о 3/3 <50 м
[]
+21.4 +14.0 63 +24 +30 комфорт 1015.1 1010.8 193
11 19.07 З 5 н/о 1/1 <50 м
[]
+22.3 +13.4 57 +25 +33 комфорт 1015.0 1010.7 208
12 19.07 З 4
{8}
н/о 3/3 <50 м
[]
+23.6 +13.0 51 +26 +33 жарко 1014.8 1010.5 188
13 19.07 З 4 н/о 9/9 <50 м
[]
+24.1 +12.8 49 +26 +27 жарко 1014.9 1010.6 179
14 19.07 З 3 н/о 9/9 <50 м
[]
+24.4 +12.6 48 +26 +27 жарко 1014.7 1010.4 145
15 19.07 ЮЗ 4
{7}
н/о 5/5 <50 м
[]
+24.9 +11.9 44 +26 +30 жарко 1014.3 1010.0 182
16 19.07 ЮЗ 5 н/о 4/4 <50 м
[]
+25.0 +11.4 43 +26 +28 жарко 1014.1 1009.8 148
17 19.07 З 3 н/о 9/9 <50 м
[]
+24.5 +12.2 46 +26 +26 жарко 1013.8 1009.5 88
18 19.07 ЮЗ 3
{8}
н/о 8/8 <50 м
[]
+24.1 +12.2 47 +26 +26 жарко 1013.9 1009.6 +25.4 58
19 19.07 Ю 1 н/о 9/9 <50 м
[]
+23.0 +13.5 55 +26 +26 жарко 1013.6 1009.3 19
20 19.07 ЮВ 1 н/о 9/9 <50 м
[]
+20.2 +14.8 71 +24 +24 комфорт 1013.6 1009.2 3
21 19.07 штиль 0
{4}
н/о 9/9 <50 м
[]
+17.2 +14.4 84 +17 +17 1013.6 1009.2
22 19.07 штиль 0 н/о 9/9
[]
+16.1 +14.1 88 +16 +16 1013.5 1009.1
23 19.07 ЮЗ 1 н/о 10/10 <50 м
[]
+15.6 +13.8 89 +16 +16 1013.1 1008.7
00 20.07 В 1
{4}
н/о 9/9 <50 м
[]
+14.8 +13.2 90 +15 +15 1012.7 1008.3 169
01 20.07 ЮВ 2 н/о 10/10 <50 м
[]
+14.6 +13.5 93 +14 +14 1012.2 1007.8
02 20.07 ЮВ 2 н/о 9/9 <50 м
[]
+16.6 +14.5 87 +17 +17 1011.9 1007.5
03 20.07 ЮВ 2
{4}
н/о 10/10 <50 м
[]
+17.2 +14.4 84 +18 +18 1011.5 1007.1
05 20.07 Ю 2 н/о 8/8 <50 м
[]
+18.0 +15.0 83 +19 +19 1010.8 1006.4 9
06 20.07 Ю 2
{4}
н/о 6/6 <50 м
[]
+20.4 +15.7 74 +24 +25 комфорт 1010.5 1006.2 +14.4 35
07 20.07 Ю 3 н/о 10/10 <50 м
[]
+22.8 +16.0 65 +27 +27 душно 1010.4 1006.1 57
08 20.07 ЮЗ 3 н/о 10/10 <50 м
[]
+23.8 +15.9 61 +27 +27 жарко 1010.4 1006.1 60
09 20.07 СЗ 3
{6}
н/о 10/10 <50 м
[]
+24.1 +16.0 61 +27 +27 жарко 1010.5 1006.2 69
10 20.07 З 2 н/о 9/9 <50 м
[]
+24.4 +16.5 61 +28 +29 душно 1010.9 1006.6 95
11 20.07 З 1 н/о 9/9 <50 м
[]
+24.8 +17.2 63 +29 +31 душно 1010.7 1006.4 88
12 20.07 ЮЗ 3
{6}
н/о 6/0
[]
+26.5 +16.7 55 +30 +36 душно 1010.3 1006.0 143
13 20.07 ЮЗ 4 н/о 8/8
[]
+27.0 +16.8 54 +31 +33 душно 1010.2 1006.0 106
14 20.07 З 3 н/о 9/9
[]
+23.1 +17.9 73 +29 +30 очень
душно
1010.4 1006.1 48
15 20.07 З 3
{12}
н/о 9/9 600 м
[]
+19.9 +17.9 88 +23 +24 комфорт 1012.1 1007.7 25
17 20.07 З 5 н/о 3/3 <50 м
[]
+24.0 +17.5 67 +28 +29 душно 1011.8 1007.5 133
18 20.07 ЮЗ 5
{12}
н/о 4/4 <50 м
[]
+23.9 +17.8 69 +28 +28 душно 1012.2 1007.9 +27.1 80
19 20.07 З 4 н/о 1/1 <50 м
[]
+23.3 +15.7 62 +28 +28 душно 1012.7 1008.4 30
20 20.07 З 4 н/о н/о +21.9 +13.6 59 +25 +25 комфорт 1013.9 1009.6 3
21 20.07 З 2 н/о н/о +20.2 +13.1 64 +23 +23 комфорт 1014.9 1010.5
22 20.07 ЮЗ 2 н/о 4/4 <50 м
[]
+17.6 +13.3 76 +18 +18 1015.5 1011.1
23 20.07 ЮЗ 1 н/о 8/8 <50 м
[]
+15.5 +13.2 86 +16 +16 1016.3 1011.9
00 21.07 ЮЗ 2
{9}
н/о 9/9 <50 м
[]
+15.2 +13.5 90 +15 +15 1016.5 1012.1 107
01 21.07 ЮЗ 2 н/о 1/1 <50 м
[]
+14.3 +13.2 93 +14 +14 1016.8 1012.3
02 21.07 ЮЗ 2 н/о ясно +14.2 +13.1 93 +14 +14 1017.4 1012.9
03 21.07 ЮЗ 2
{4}
н/о 1/1 <50 м
[]
+14.0 +13.1 94 +13 +13 1018.0 1013.5
05 21.07 ЮЗ 3 н/о 10/10 <50 м
[]
+15.5 +14.2 92 +15 +15 1019.5 1015.0 3
06 21.07 ЮЗ 3
{5}
н/о 10/10 <50 м
[]
+16.3 +14.5 89 +16 +16 1020.0 1015.6 +13.8 18
07 21.07 З 2 н/о 10/10 <50 м
[]
+17.0 +14.8 87 +17 +17 1020.5 1016.1 31
08 21.07 ЮЗ 3 н/о 10/10 <50 м
[]
+17.9 +15.1 84 +18 +18 1020.8 1016.4 62
09 21.07 З 3
{5}
н/о 10/10 <50 м
[]
+19.0 +15.6 81 +21 +21 комфорт 1021.5 1017.1 72
10 21.07 ЮЗ 3 н/о 9/9 <50 м
[]
+21.2 +16.1 73 +25 +26 комфорт 1021.7 1017.3 136
11 21.07 З 2 н/о 6/6 <50 м
[]
+22.2 +15.7 67 +26 +33 душно 1022.1 1017.7 110
12 21.07 З 3
{5}
н/о 9/9 <50 м
[]
+23.1 +14.8 60 +27 +28 душно 1022.2 1017.8 146

 

Местоположение метеостанции Дипенбек (Бельгия): широта 50.92 долгота 5.45 высота над уровнем моря 37 м.

В архиве по умолчанию представлена погода в Дипенбеке за последнюю неделю. Архивные данные за месяц целиком и за предыдущие месяцы, начиная с января 2011 года, Вы можете получить, выбрав интересующий диапазон дат из раскрывающегося списка и нажав кнопку "Ввод!".


*Определитесь, кто Вы:
робот инопланетянин человек

Внимание! Время в таблицах - всемирное. Для получения местного времени необходимо прибавить поправку, которая равна 1 ч.

Смотрите также архив погоды в соседних городах и на ближайших метеорологических станциях:

Погода в Маастрихте (Нидерланды) (23 км)
Погода в Кляйн-Брогеле (Бельгия) (28 км)
Погода в Шаффене (Бельгия) (28 км)
Погода в Бьерсете (Бельгия) (30 км)
Погода в Элле (Нидерланды) (38 км)
Погода в Ахен-Орсбахе (Германия) (42 км)
Погода в Гайленкирхене (Германия) (42 км)
Погода в Ретье (Бельгия) (44 км)
Погода в Бовешене (Бельгия) (51 км)
Погода в Эйндховене (Нидерланды) (59 км)

Пояснения к столбцам:

Ветер - указаны скорость ветра в м/с - средняя за 10 мин, порывы в срок и между сроками (в фигурных скобках) и направление, откуда дует ветер: С - северный, СВ - северо-восточный, В - восточный, ЮВ - юго-восточный, Ю - южный, ЮЗ - юго-западный, З - западный, СЗ - северо-западный.
Видимость - горизонтальная дальность видимости в метрах или километрах. При видимости от 1 до 10 км при отсутствии осадков обычно наблюдается дымка, при ухудшении видимости до 1 км и менее - туман. В сухую погоду видимость может ухудшаться дымом, пылью или мглою.
Явления - указаны атмосферные явления, наблюдавшиеся в срок или в последний час перед сроком; фигурными скобками обозначены явления, наблюдавшиеся между сроками (за 1-3 часа до срока); квадратными скобками обозначены град или гололедные отложения с указанием их диаметра в мм.
Облачность - указаны через наклонную черту общая и нижняя облачность в баллах и высота нижней границы облаков в метрах; квадратными скобками обозначены формы облаков: Ci - перистые, Cs - перисто-слоистые, Cc - перисто-кучевые, Ac - высококучевые, As - высокослоистые, Sc - слоисто-кучевые, Ns - слоисто-дождевые, Cu - кучевые, Cb - кучево-дождевые. Подробнее классификацию облаков см. в Атласе облаков (PDF).
T - Температура воздуха - температура, измеренная на высоте 2 м над землей.
Td - Температура точки росы - температура, при понижении до которой содержащийся в воздухе водяной пар достигнет насыщения.
f - Относительная влажность воздуха - влажноcть воздуха, измеренная на высоте 2 м над землей.
Te - Эффективная температура - температура, которую ощущает одетый по сезону человек в тени. Характеристика душности погоды. При расчете учитывается влияние влажности воздуха и скорости ветра на теплоощущения человека.
Tes - Эффективная температура на солнце - температура, которую ощущает человек, с поправкой на солнечный нагрев. Характеристика знойности погоды. Зависит от высоты солнца над горизонтом, облачности и скорости ветра. Ночью, в пасмурную погоду, а также при ветре 12 м/с и более поправка равна нулю.
P - Атмосферное давление - приведенное к уровню моря атмосферное давление.
Po - Атмосферное давление - измеренное на уровне метеостанции атмосферное давление.
Tmin - Минимальная температура - минимум температуры воздуха на высоте 2 м над землей.
Tmax - Максимальная температура - максимум температуры воздуха на высоте 2 м над землей.
R - Количество осадков - Количество выпавших осадков за период времени, мм. При наведении курсора мыши на число - период времени, за который выпало указанное количество осадков.
R24 - Количество осадков - Количество выпавших осадков за 24 часа, мм.
S - Снежный покров - Высота снежного покрова, см. При наведении курсора мыши на число - состояние снежного покрова и степень покрытия местности в баллах.